Regional Weather Roundup
Issued by NWS

Home | Current Version | Previous Version | Text Only | Print | Product List | Glossary Off
Versions: 1 2 3 4 5 6 7 8 9 10 11 12 13 14 15 16 17 18 19 20 21 22 23 24 25 26 27 28 29 30 31 32 33 34 35 36 37 38 39 40 41 42 43 44 45 46 47 48 49 50

000
ASUS43 KLOT 072300
RWRIL

ILLINOIS REGIONAL WEATHER ROUNDUP
NATIONAL WEATHER SERVICE CHICAGO/ROMEOVILLE IL
600 PM CDT TUE JUL 07 2015

NOTE: "FAIR" INDICATES FEW OR NO CLOUDS BELOW 12,000 FEET WITH NO
SIGNIFICANT WEATHER AND/OR OBSTRUCTIONS TO VISIBILITY.

* THESE STATIONS ARE NOT UNDER NWS QUALITY CONTROL. THEY ALSO MAY NOT
  REPORT WEATHER SUCH AS PRECIPITATION OR FOG.

ILZ001-002-007-009-015-016-024-080000-
NORTHWEST ILLINOIS

CITY           SKY/WX    TMP DP  RH WIND       PRES   REMARKS
MOLINE         MOSUNNY   73  54  51 NE8       30.04F HAZE
STERLING*      PTSUNNY   72  55  56 N6        30.05F
$$

ILZ003-004-008-010-011-017-018-080000-
NORTH CENTRAL ILLINOIS

CITY           SKY/WX    TMP DP  RH WIND       PRES   REMARKS
ROCKFORD       PTSUNNY   70  51  51 N10       30.07S
$$

ILZ005-006-012>014-019>023-080000-
NORTHEAST ILLINOIS

CITY           SKY/WX    TMP DP  RH WIND       PRES   REMARKS
CHICAGO-OHARE  MOSUNNY   63  47  55 NE14      30.06S
CHICAGO-MIDWAY MOSUNNY   65  47  52 NE18      30.06S
AURORA         MOSUNNY   69  52  54 NE9       30.05S
WAUKEGAN       SUNNY     60  48  64 NE9       30.07S
DUPAGE AIRPORT SUNNY     65  48  54 NE12      30.05S
WHEELING       SUNNY     62  47  57 NE9       30.08S
NORTHERLY ISL    N/A     61  50  67 N8          N/A
$$

LMZ740>746-080000-
SOUTHERN LAKE MICHIGAN

STATION/POSITION SKY/WX   TEMP    WIND        PRES    VSBY  WAVE
                          AIR SEA DIR/SP/G                  HT/PER
                          (F)     (DEG/KT/KT) (MB)    (MI)  (FT/S)
HARRISON CRIB              58      20/ 17/ 19   N/A
BURNHAM HARBOR             61      20/ 10/ 15   N/A
CALUMET HARBOR             62     360/ 13/ 17   N/A
BURNS HARBOR               62      30/ 21/ 25 1017.9R
MICHIGAN CITY              61     360/ 26/ 31   N/A
MICHIGAN CITY 6N           62 65   20/ 19/ 25   N/A           8/ 7
ST. JOSEPH                 61 63   40/ 21/ 27   N/A           9/ 2
$$

ILZ025>027-034>036-040-047-049-050-058-095>099-080000-
WEST-CENTRAL ILLINOIS

CITY           SKY/WX    TMP DP  RH WIND       PRES   REMARKS
QUINCY         PTSUNNY   72  59  63 NE12      30.03S HAZE
$$

ILZ028>032-037-038-041>044-048-051>054-059>061-080000-
CENTRAL ILLINOIS

CITY           SKY/WX    TMP DP  RH WIND       PRES   REMARKS
DECATUR        CLOUDY    71  58  63 NE13      30.02S
PEORIA         PTSUNNY   75  59  57 NE8       30.03S HAZE
SPRINGFIELD    CLOUDY    72  61  68 NE8       30.02F
TAYLORVILLE    NOT AVBL
$$

ILZ033-039-045-046-055>057-062-063-080000-
EAST-CENTRAL ILLINOIS

CITY           SKY/WX    TMP DP  RH WIND       PRES   REMARKS
CHAMPAIGN      CLOUDY    69  55  60 N12       30.03R
MATTOON        CLOUDY    65  60  84 NE10      30.01S
$$

ILZ079-100>102-080000-
SOUTHWEST ILLINOIS

CITY           SKY/WX    TMP DP  RH WIND       PRES   REMARKS
ALTON          LGT RAIN  66 N/A N/A NE6       30.01F
BELLEVILLE     CLOUDY    69  69  98 NE10G18   29.98F
CAHOKIA*       CLOUDY    70  65  84 N9        30.00S
$$

ILZ064>066-069>071-074>076-080>082-084>086-088>090-092>094-080000-
SOUTH-CENTRAL ILLINOIS

CITY           SKY/WX    TMP DP  RH WIND       PRES   REMARKS
CARBONDALE     CLOUDY    77  74  90 SW7       29.95F
MARION         CLOUDY    77  73  88 W9        29.96F
MT. VERNON     CLOUDY    72  66  83 N5        29.98S
$$

ILZ067-068-072-073-078-083-087-091-080000-
SOUTHEAST ILLINOIS

CITY           SKY/WX    TMP DP  RH WIND       PRES   REMARKS
LAWRENCEVILLE  LGT RAIN  69  32  25 N9        29.98S
$$

ABBREVIATIONS USED IN REMARKS
   TC - TEMPERATURE IN CELSIUS
  WCI - WIND CHILL INDEX
   HX - HEAT INDEX
  VSB - VISIBILITY
$$




USA.gov is the U.S. government's official web portal to all federal, state and local government web resources and services.